Taurus 1
1 44530U 19059C   25049.78337348  .00013047  00000-0  25493-2 0  9993
2 44530  98.5916 184.2217 0009066  15.0661 345.0808 14.63006538287721
Duchifat 3
1 44854U 19089C   25049.49458838  .00042006  00000-0  12256-2 0  9991
2 44854  36.9496 335.4043 0009015 330.2831  29.7409 15.34365435285804
TO-108
1 44881U 19093C   25049.81608023  .00002249  00000-0  26864-3 0  9991
2 44881  97.8023 127.7676 0012899 231.6633 128.3423 14.85150488279639
FloripaSat 1
1 44885U 19093G   25049.76467723  .00010410  00000-0  92597-3 0  9994
2 44885  97.8197 137.2929 0010955 213.5614 146.4914 14.96229757280165
RS-44
1 44909U 19096E   25049.14686408  .00000028  00000-0  67326-4 0  9996
2 44909  82.5221 301.3372 0217049 195.8798 163.5426 12.79738418240437
UPMSat 2
1 46276U 20061E   25049.71868279  .00047014  00000-0  74649-3 0  9991
2 46276  97.2607 121.5881 0000163 238.5152 121.6085 15.53213900248174
SALSAT
1 46495U 20068K   25049.47538737  .00013255  00000-0  61783-3 0  9992
2 46495  97.8497  22.6603 0012133 176.8563 183.2749 15.19957129241638
CubeSX-Sirius-HSE
1 47951U 21022V   25049.89280236  .00095111  00000-0  14996-2 0  9999
2 47951  97.4327 317.3260 0007328   3.5753 356.5551 15.53185256216465
CubeSX-HSE
1 47952U 21022W   25049.87168346  .00094113  00000-0  14576-2 0  9990
2 47952  97.4325 317.4865 0006934 358.3728   1.7501 15.53687414216479
KSU-Cubesat
1 47954U 21022Y   25049.70259139  .00268920  00000-0  17949-2 0  9991
2 47954  97.4294 321.4931 0003869  44.6547 315.5028 15.74564535216430
GRBAlpha
1 47959U 21022AD  25049.83381959  .00089713  00000-0  13988-2 0  9996
2 47959  97.4312 317.6053 0007277   3.1625 356.9672 15.53515446215293
Orbicraft-Zorkiy
1 47960U 21022AE  25049.80501865  .00164990  00000-0  16743-2 0  9998
2 47960  97.4309 320.7135 0004783  13.2959 346.8426 15.64673323216150
TUBIN
1 48900U 21059X   25049.76033366  .00045021  00000-0  85371-3 0  9991
2 48900  97.6672 211.0574 0005175 287.5828  72.4856 15.48185929202826
LEDSAT
1 49069U 21073D   25049.72555422  .00047987  00000-0  10169-2 0  9997
2 49069  97.4025 127.9113 0012928 124.0415 236.2063 15.44852952194236
CUTE
1 49263U 21088D   25049.17686084  .00065307  00000-0  15477-2 0  9990
2 49263  97.4636 122.5704 0008267 286.9569  73.0771 15.41488061187234
TeikyoSat 4
1 49396U 21102B   25049.68614959  .00003204  00000-0  21874-3 0  9999
2 49396  97.4268  92.0745 0013614 147.8201 212.3861 15.06800055179846
Z-Sat
1 49399U 21102E   25049.89423869  .00007403  00000-0  42313-3 0  9999
2 49399  97.3976  94.7393 0020033 125.2479 235.0631 15.12801939180233
KOSEN 1
1 49402U 21102H   25049.62150822  .00011493  00000-0  56898-3 0  9998
2 49402  97.3885  97.1144 0018102 106.0403 254.2826 15.17798556180443
HO-113
1 50466U 21131B   25049.84831754  .00001258  00000-0  40895-3 0  9994
2 50466  98.5126 139.7694 0005225 107.5838 252.5921 14.40545581165509
IRIS-A
1 51044U 22002BN  25049.71055749  .00082785  00000-0  10755-2 0  9998
2 51044  97.3430 124.8221 0004171 224.0647 136.0277 15.58524158172426
Foresail-1
1 52766U 22057AL  25049.80631787  .00078915  00000-0  10446-2 0  9999
2 52766  97.5985 191.5827 0006517 314.0314  46.0403 15.58023482152473
SNUGLITE 2
1 52899U 22065F   25049.34945472  .00003229  00000-0  64384-3 0  9990
2 52899  98.1485 192.5610 0008588 101.9532 258.2633 14.62639698140226
IO-117
1 53106U 22080B   25042.50223640 -.00000003  00000-0  00000-0 0  9996
2 53106  70.1392 109.3763 0008154  50.6584 309.4797  6.42557620 60646
FO-118
1 54684U 22167C   25049.88442413  .00546461  11447-3  19742-2 0  9990
2 54684  97.6092 213.8788 0009522 302.5637  57.4715 15.88536562122477
SO-120
1 56992U 23084BU  25042.76759540  .17342116  26494-5  33638-3 0  9995
2 56992  97.5047 178.6720 0014759 276.3055  83.6566 16.46134597 93271
UmKA 1 (RS40S)
1 57172U 23091G   25049.86782383  .00010189  00000-0  57591-3 0  9991
2 57172  97.5757 105.8849 0014959   2.4111 357.7190 15.13191698 90720
CubeBel-2 (EU11S)
1 57175U 23091K   25049.88221567  .00015431  00000-0  80447-3 0  9999
2 57175  97.5758 106.4683 0013159  12.4419 347.7136 15.15988257 90760
VERONIKA
1 58261U 23174F   25049.77540855  .00066206  00000-0  13906-2 0  9991
2 58261  97.4270 131.5450 0006943  88.1997 272.0047 15.45095212 71448
KAFASAT
1 58317U 23174BP  25049.80348903  .00201207  00000-0  19760-2 0  9993
2 58317  97.4151 134.9557 0002769  12.1307 348.0018 15.65396061 71694
ENSO
1 58470U 23185J   25049.86101910  .00049958  00000-0  11611-2 0  9996
2 58470  97.3890 122.4837 0009111 121.1264 239.0878 15.42138611 67897
EIRSAT-1
1 58472U 23185L   25049.86994441  .00065985  00000-0  13339-2 0  9994
2 58472  97.3885 123.1935 0007855 121.6317 238.5700 15.46212510 67946
SONATE-2
1 59112U 24043Q   25049.61220945  .00024635  00000-0  84579-3 0  9996
2 59112  97.4972 179.1116 0012293 147.2021 212.9984 15.30057240 53334
MO-122
1 60209U 24125G   25049.51698626  .00023946  00000-0  81184-3 0  9993
2 60209  97.2939 262.6890 0021084 171.7720 188.3871 15.30325135 34934
GRBBeta
1 60237U 24128C   25049.55181336  .00006520  00000-0  51609-3 0  9994
2 60237  61.9920 106.2356 0041042  31.6397 328.7147 15.00903370 33523
Curium One
1 60242U 24128H   25049.86788873  .00011399  00000-0  85867-3 0  9996
2 60242  61.9819 104.7456 0041443  26.2102 334.1074 15.02224453 33585
ROBUSTA-3A
1 60243U 24128J   25049.57399995  .00010599  00000-0  80883-3 0  9992
2 60243  61.9889 106.2620 0039597  24.1774 336.1163 15.01849473 33532
CatSat
1 60246U 24125J   25049.56095254  .00014649  00000-0  53574-3 0  9999
2 60246  97.2728 263.0299 0046685 127.8078 232.7402 15.27114437 33021
HYPERVIEW-1G (RS66S)
1 61772U 24199AP  25049.87445871  .00028034  00000-0  99403-3 0  9997
2 61772  97.3719 279.3179 0014223 225.1136 134.8950 15.28952266 60003
AO-123
1 61781U 24199AY  25049.78986911  .00012528  00000-0  49058-3 0  9994
2 61781  97.3726 278.9857 0015367 227.0793 132.9157 15.25829321 59973
POEM 4 (BGS ARPIT)
1 62461U 24253C   25049.73792950  .00174277  00000-0  75619-3 0  9996
2 62461  55.2201  17.0437 0012214  65.9811 294.2517 15.83795298  7888
